Regional Weather Roundup
Issued by NWS Midland/Odessa, TX

Skip options and go directly to product.
Home | Oldest Version | Previous Version | Current Version | All | Graphics & Text | Save Text | Print | Product List | Glossary On

Skip product version selection by date and time.   
623
ASUS44 KMAF 271810
RWRMAF
MIDLAND AREA WEATHER ROUNDUP
NATIONAL WEATHER SERVICE MIDLAND TX
100 PM CDT MON JUN 27 2016

...IN SOUTHWEST TEXAS AND SOUTHEAST NEW MEXICO...

CITY           SKY/WX    TMP DP  RH WIND       PRES   REMARKS
ALPINE         CLOUDY    79  62  55 NE9       30.28F
ANDREWS        CLOUDY    78  64  61 S18G24    30.23S
ARTESIA        MOSUNNY   79  66  65 E8        30.25F
BIG SPRING     CLOUDY    75  63  64 SE9       30.24S
CARLSBAD       PTSUNNY   79  63  57 VRB6      30.22F
DRYDEN           N/A     75  73  93 E13       30.14S
FORT STOCKTON  CLOUDY    71  67  87 E14       30.19S
GUAD PASS      MOSUNNY   74  60  61 E24G32    30.31F
HOBBS          PTSUNNY   81  61  50 N8        30.25F
MARFA          CLOUDY   N/A N/A N/A VRB6      30.25F
MIDLAND AIRPK  CLOUDY    74  69  85 SE7       30.23F
MIDLAND INTL   CLOUDY    76  67  73 E14       30.22S
ODESSA         CLOUDY    73  68  84 S5        30.23S
PECOS          CLOUDY    76  66  71 NE12      30.18S
PRESIDIO       FAIR      90  62  38 E7        30.09F
SEMINOLE       CLOUDY    81  60  48 SE9G18    30.25S
SNYDER           N/A     82  67  59 SE10      30.22F
WINK           RAIN      70  68  93 E13       30.19R
$$
...OTHER STATIONS IN TEXAS...

CITY           SKY/WX    TMP DP  RH WIND       PRES   REMARKS
ABILENE        SUNNY     89  66  46 SE8       30.18F
AMARILLO       SUNNY     85  60  42 S8G17     30.27F
AUSTIN         PTSUNNY   88  68  51 CALM      30.11F
BROWNSVILLE    CLOUDY    89  75  63 E13       30.04F
CORPUS CHRISTI PTSUNNY   92  74  55 E15       30.06F HX 101
DALLAS FTW     PTSUNNY   93  70  46 CALM      30.10F
DEL RIO        CLOUDY    87  70  56 S15       30.09F
EL PASO        MOSUNNY   89  57  33 E8        30.19F
HOUSTON INT    PTSUNNY   93  74  53 CALM      30.07F HX 103
LUBBOCK        PTSUNNY   83  62  49 S9        30.25F
SAN ANGELO     MOSUNNY  N/A N/A N/A MISG      30.18F
SAN ANTONIO    PTSUNNY   89  68  49 VRB6      30.12F
WACO           MOSUNNY   92  69  47 SE5       30.10F
WICHITA FALLS  NOT AVBL
$$
...OTHER LOCATIONS IN NEW MEXICO...

CITY           SKY/WX    TMP DP  RH WIND       PRES   REMARKS
ALAMAGORDO     SUNNY     84  57  39 SW3       30.24F
ALBUQUERQUE    PTSUNNY   83  53  35 W9        30.32F
CANNON AFB     MOSUNNY   79  60  52 S10       30.31F
CLOVIS         SUNNY     81  63  54 SE8       30.31F
HOLLOMAN AFB   SUNNY     85  57  38 VRB5      30.22S
ROSWELL        MOSUNNY   82  61  48 E9        30.25F
RUIDOSO          N/A     72  54  53 SE14G21   30.45S
SANTA FE       SUNNY     82  43  25 CALM      30.39F
TRUTH OR CONSE SUNNY     85  53  33 NE8       30.27F
TUCUMCARI      SUNNY     84  58  40 S8        30.28F
$$

USA.gov is the U.S. government's official web portal to all federal, state and local government web resources and services.